FENGYUN 1C DEB, 37021

Orbit data source: Space-Track

FENGYUN 1C DEB, 37021 is space debris in SSO originally from a launch on Mon, 10 May 1999 UTC launched from the Taiyaun Space Center, China (TSC). Fengyun 1C debris stems from the Chinese weather satellite Fengyun-1C, which was intentionally destroyed by a Chinese anti-satellite missile in 2007. This event dramatically increased the amount of space debris, with thousands of trackable fragments posing hazards to satellites and human spaceflight. The Fengyun 1C debris cloud has become a focal point in discussions about space sustainability and the need for international regulations to prevent the creation of new debris.

Loading next visibility...
Identifier
37021, 1999-025EDD
Orbit
SSO
Country
Flag of CNCN / PRC
Related business
Manufacturer
Unknown
Mission
Spacecraft
Bus & Motor
Unknown
Mass
Unknown
Launch date (UTC)
1999-05-10 (27 years ago)
Launch vehicle
Unknown
Launch site
Taiyaun Space Center, China (TSC)
Object type
Payload
Rocket body
Debris
Shape & HBR
Unknown shape, 0.1 m
Radar Cross Section
Small (<0.1 m²)

Expand to show TLE details & history
Last TLE update: 2 weeks ago

TLE from 2 weeks ago
0 FENGYUN 1C DEB
1 37021U 99025EDD 26058.28432963  .00003116  00000-0  97843-3 0  9991
2 37021  98.3831  77.4848 0176088  25.0843  35.9466 14.32692132711507
Epoch: 2026-02-27T06:49Z
TLE epoch observation values (Epoch: 2026-02-27T06:49:26.080Z)
Latitude
61.19235°
Longitude
162.5455°
Altitude
691.86 km
Speed
7.569 km/s
True Right ascension
04h 08m 06s
True Declination
61° 02' 44"
Sunlit
Object was in daylight at epoch
Visualization orbit readout
Latitude
Unknown
Longitude
Unknown
Altitude
Unknown
Speed
Unknown
Apparent Right ascension
Unknown
Apparent Declination
Unknown
Sunlit
N/A
Visualization observer readout
Local Sidereal Time
19:58:45
Azimuth
Unknown
Elevation
Unknown
Doppler factor
Unknown
Orbital elements
Apogee altitude
905.915 km
Perigee altitude
653.827 km
Semi-major axis
7,158.008 km
Eccentricity
0.01761
Inclination
98.3831°
RAAN
77.4848°
Arg. of periapsis
25.0843°
True anomaly
37.15251°
Mean anomaly
35.9466°
Eccentric anomaly
36.54739°
Mean motion
3.58389 °/min
Orbital period
100.45 mins
BSTAR
0.00097843
Loading maneuver chart data...
Computing Atmospheric mass density...

Documentation

Showing up to 5 results
|